Location: Newark
(34.1333°N, 7.9667°W)
Time: 12:47:02
(UTC+00:00)

LightSail 2 - Visible Passes

Search period start: 06 April 2020 00:00
Search period end: 16 April 2020 00:00
Orbit: 694 x 724 km, 24.0° (Epoch: 05 April)

Date Brightness Start Highest point End Pass type
(mag) Time Alt. Az. Time Alt. Az. Time Alt. Az.
06 Apr 7.0 04:46:30 14° S 04:48:24 17° SSE 04:51:33 10° SE visible
07 Apr 7.5 03:50:49 12° SE 03:50:49 12° SE 03:51:43 10° SE visible
07 Apr 6.7 05:30:08 10° SW 05:34:06 23° S 05:38:05 10° ESE visible
08 Apr 6.6 04:34:00 20° S 04:35:00 21° S 04:38:45 10° ESE visible
09 Apr 7.4 03:38:17 13° SE 03:38:17 13° SE 03:39:17 10° SE visible
09 Apr 6.5 05:17:10 12° SW 05:20:45 25° S 05:24:52 10° ESE visible
10 Apr 6.4 04:21:27 24° S 04:21:37 24° S 04:25:38 10° ESE visible
11 Apr 7.6 03:25:44 12° SE 03:25:44 12° SE 03:26:20 10° ESE visible
11 Apr 6.4 05:04:36 16° SW 05:07:20 25° S 05:11:27 10° SE visible
12 Apr 6.5 04:08:54 25° SSE 04:08:54 25° SSE 04:12:20 10° SE visible
13 Apr 6.5 04:52:08 19° SW 04:53:54 23° S 04:57:51 10° SE visible
14 Apr 6.8 03:56:30 20° SSE 03:56:30 20° SSE 03:58:49 10° SE visible
14 Apr 6.9 05:36:28 10° SW 05:39:32 16° SSW 05:42:37 10° SSE visible
15 Apr 6.6 04:39:48 19° SSW 04:40:25 19° SSW 04:43:57 10° SSE visible
